Home > Weather > St. George > Past weeks

Flag for USA Past Weather in St. George, Utah, USA — Yesterday and Last 2 Weeks

Now
73 °F

Sunny.


Feels Like: 77 °F
Forecast: 70 / 93 °F
Wind: 5 mph from Southeast

Location: Saint George

Current Time: Aug 25, 2016 at 9:11:59 AM

Latest Report: Aug 25, 2016 at 8:35 AM


Visibility: 10 mi

Pressure: 30.04 "Hg (27.26 "Hg at 842m altitude)

Humidity: 36%

Dew Point: 45 °F

Location of St. GeorgeLocation

Past Weather in St. George — Graph

°F

St. George Temperature Yesterday

Maximum temperature yesterday: 97 °F (at 5:15 PM)
Minimum temperature yesterday: 68 °F (at 6:35 AM)
Average temperature yesterday: 82 °F

High & Low Weather Summary for the Past Weeks

 TemperatureHumidityPressure
High106 °F (Aug 14, 3:55 PM)73% (Aug 11, 2:35 AM)30.15 "Hg (Aug 11, 2:35 AM)
Low66 °F (Aug 11, 5:35 AM)9% (Aug 14, 3:55 PM)29.81 "Hg (Aug 20, 6:15 PM)
Average84 °F29%30.00 "Hg
* Reported Aug 10 7:15 AM — Aug 25 7:55 AM, St. George, Weather by CustomWeather, © 2016

Note: Actual official high and low records may vary slightly from our data, if they occured in-between our weather recording intervals... More about our weather records

Advertising

St. George Weather History for the Previous 24 Hours

Scroll right to see more
 ConditionsComfort  
Time TempWeatherWind HumidityBarometerVisibility
7:55 AM
Thu, Aug 25
73 °FClear.6 mph38%30.03 "Hg10 mi
7:35 AM72 °FClear.6 mph41%30.03 "Hg10 mi
7:15 AM73 °FClear.5 mph38%30.03 "Hg10 mi
6:55 AM73 °FClear.8 mph38%30.02 "Hg10 mi
6:35 AM75 °FClear.8 mph36%30.01 "Hg10 mi
6:15 AM73 °FClear.9 mph38%30.01 "Hg10 mi
5:55 AM73 °FClear.6 mph38%30.00 "Hg10 mi
5:35 AM73 °FClear.9 mph38%29.99 "Hg10 mi
5:15 AM73 °FClear.13 mph38%29.99 "Hg10 mi
4:55 AM75 °FClear.12 mph36%29.99 "Hg10 mi
4:35 AM75 °FClear.15 mph36%29.98 "Hg10 mi
4:15 AM75 °FClear.15 mph36%29.97 "Hg10 mi
3:55 AM75 °FClear.18 mph36%29.97 "Hg10 mi
3:35 AM77 °FClear.17 mph34%29.96 "Hg10 mi
3:15 AM77 °FClear.21 mph34%29.96 "Hg10 mi
2:55 AM79 °FClear.22 mph32%29.96 "Hg10 mi
2:35 AM79 °FClear.20 mph30%29.96 "Hg10 mi
2:15 AM79 °FClear.18 mph26%29.95 "Hg10 mi
1:55 AM81 °FClear.18 mph24%29.96 "Hg10 mi
1:35 AM81 °FClear.17 mph24%29.96 "Hg10 mi
1:15 AM81 °FClear.12 mph24%29.96 "Hg10 mi
12:55 AM81 °FClear.9 mph23%29.96 "Hg10 mi
12:35 AM81 °FClear.8 mph23%29.96 "Hg10 mi
12:15 AM81 °FClear.10 mph23%29.96 "Hg10 mi
11:55 PM
Wed, Aug 24
81 °FClear.9 mph23%29.96 "Hg10 mi
11:35 PM82 °FClear.9 mph21%29.95 "Hg10 mi
11:15 PM82 °FClear.7 mph21%29.96 "Hg10 mi
10:55 PM82 °FClear.9 mph21%29.96 "Hg10 mi
10:15 PM86 °FClear.7 mph19%29.96 "Hg10 mi
9:55 PM84 °FClear.7 mph19%29.95 "Hg10 mi
9:35 PM84 °FClear.7 mph19%29.95 "Hg10 mi
9:15 PM88 °FClear.6 mph18%29.94 "Hg10 mi
8:55 PM90 °FSunny.5 mph17%29.94 "Hg10 mi
8:35 PM91 °FSunny.8 mph16%29.93 "Hg10 mi
8:15 PM91 °FSunny.6 mph16%29.93 "Hg10 mi
7:55 PM93 °FSunny.9 mph15%29.93 "Hg10 mi
7:35 PM93 °FSunny.9 mph15%29.93 "Hg10 mi
7:15 PM93 °FSunny.12 mph16%29.93 "Hg10 mi
6:55 PM93 °FSunny.10 mph17%29.94 "Hg10 mi
6:35 PM95 °FSunny.14 mph15%29.94 "Hg10 mi
6:15 PM97 °FSunny.15 mph16%29.95 "Hg10 mi
5:55 PM97 °FSunny.16 mph16%29.95 "Hg10 mi
5:35 PM97 °FSunny.14 mph16%29.96 "Hg10 mi
5:15 PM97 °FSunny.13 mph16%29.96 "Hg10 mi
4:55 PM95 °FSunny.15 mph18%29.96 "Hg10 mi
4:35 PM95 °FSunny.8 mph18%29.97 "Hg10 mi
4:15 PM93 °FSunny.14 mph20%29.98 "Hg10 mi
3:55 PM95 °FSunny.13 mph19%29.98 "Hg10 mi
3:35 PM93 °FSunny.8 mph19%30.00 "Hg10 mi
3:15 PM93 °FSunny.5 mph20%30.01 "Hg10 mi
2:55 PM91 °FSunny.10 mph23%30.01 "Hg10 mi
2:35 PM91 °FSunny.7 mph23%30.02 "Hg10 mi
2:15 PM91 °FSunny.9 mph23%30.04 "Hg10 mi
1:55 PM90 °FSunny.13 mph24%30.05 "Hg10 mi
1:35 PM88 °FSunny.9 mph25%30.06 "Hg10 mi
1:15 PM88 °FSunny.7 mph25%30.07 "Hg10 mi
12:55 PM86 °FSunny.No wind27%30.08 "Hg10 mi
12:35 PM86 °FSunny.8 mph27%30.09 "Hg10 mi
12:15 PM84 °FSunny.3 mph29%30.10 "Hg10 mi
11:55 AM82 °FSunny.No wind30%30.11 "Hg10 mi
11:35 AM82 °FSunny.No wind30%30.12 "Hg10 mi
11:15 AM81 °FSunny.No wind32%30.13 "Hg10 mi
10:55 AM79 °FSunny.6 mph34%30.13 "Hg10 mi
10:35 AM77 °FSunny.No wind36%30.13 "Hg10 mi
10:15 AM77 °FSunny.6 mph36%30.13 "Hg10 mi
9:55 AM75 °FSunny.No wind39%30.14 "Hg10 mi
9:35 AM73 °FSunny.3 mph41%30.13 "Hg10 mi
9:15 AM73 °FSunny.3 mph41%30.13 "Hg10 mi
Weather by CustomWeather, © 2016

See weather overviewHow to use our weather pages